Norwood, MA

2:29 AM EDT on August 24, 2016 (GMT -0400)
Norwood Memorial

Weather History for KOWD - May, 2013

Change the Weather History Date:

Friday, May 24, 2013

  Actual Average Record
Temperature  
Mean Temperature 60 °F -  
Max Temperature 70 °F 67 °F 88 °F (2007)
Min Temperature 50 °F 46 °F 39 °F (2002)
Degree Days  
Heating Degree Days 5    
Growing Degree Days 10 (Base 50)    
Moisture  
Dew Point 62 °F    
Average Humidity 98    
Maximum Humidity 100    
Minimum Humidity 88    
Precipitation  
Precipitation 0.65 in - - ()
Sea Level Pressure  
Sea Level Pressure 29.74 in    
Wind  
Wind Speed 7 mph (SSW)    
Max Wind Speed 12 mph    
Max Gust Speed 21 mph    
Visibility 7 miles    
Events Rain    
Averages and records for this station are not official NWS values.
T = Trace of Precipitation, MM = Missing Value Source: NWS Daily Summary

Daily Weather History Graph

Daily Weather History Graph

Search for Another Location

Airport or City:

Trip Planner

Search our weather history database for the weather conditions in past years. The results will help you decide how hot, cold, wet, or windy it might be!

Date:

Astronomy

May. 24, 2013 Rise Set
Actual Time 5:15 AM EDT 8:07 PM EDT
Civil Twilight 4:42 AM EDT 8:41 PM EDT
Nautical Twilight 4:00 AM EDT 9:23 PM EDT
Astronomical Twilight 3:12 AM EDT 10:11 PM EDT
Moon 7:46 PM EDT 4:46 AM EDT
Length of Visible Light 15h 58m
Length of Day
14h 52m
Full, 100% of the Moon is Illuminated
May 24
Full
May 25
Full
May 31
Last Quarter
Jun 8
New
Jun 16
First Quarter

Hourly Weather History & Observations

Time (EDT) Temp. Dew Point Humidity Pressure Visibility Wind Dir Wind Speed Gust Speed Precip Events Conditions
12:07 AM 66.2 °F 66.2 °F 100% 29.81 in 9.0 mi South 9.2 mph - 0.00 in Rain Light Rain
12:14 AM 66.2 °F 66.2 °F 100% 29.81 in 8.0 mi South 9.2 mph - 0.01 in Rain Light Rain
12:53 AM 66.0 °F 66.0 °F 100% 29.80 in 9.0 mi South 11.5 mph - 0.02 in Rain Light Rain
1:53 AM 64.9 °F 64.9 °F 100% 29.78 in 9.0 mi South 10.4 mph 17.3 mph 0.04 in Rain Light Rain
2:04 AM 64.4 °F 64.4 °F 100% 29.78 in 6.0 mi South 9.2 mph - 0.01 in Rain Light Rain
2:18 AM 64.4 °F 64.4 °F 100% 29.77 in 6.0 mi South 6.9 mph - 0.03 in Rain Light Rain
2:53 AM 64.9 °F 64.9 °F 100% 29.74 in 9.0 mi South 10.4 mph - 0.06 in Rain Light Rain
3:25 AM 66.2 °F 66.2 °F 100% 29.72 in 6.0 mi SSE 10.4 mph 20.7 mph 0.10 in Rain Light Rain
3:53 AM 66.0 °F 64.9 °F 96% 29.70 in 8.0 mi South 6.9 mph - 0.12 in Rain Light Rain
4:08 AM 64.4 °F 64.4 °F 100% 29.69 in 9.0 mi South 5.8 mph - 0.00 in   Overcast
4:53 AM 64.9 °F 64.9 °F 100% 29.67 in 8.0 mi South 4.6 mph - 0.00 in   Overcast
5:19 AM 64.4 °F 64.4 °F 100% 29.67 in 10.0 mi South 6.9 mph - N/A   Overcast
5:53 AM 64.0 °F 64.0 °F 100% 29.67 in 4.0 mi South 5.8 mph - 0.01 in   Overcast
6:53 AM 64.9 °F 64.9 °F 100% 29.68 in 10.0 mi South 6.9 mph - N/A   Overcast
7:53 AM 64.9 °F 64.9 °F 100% 29.68 in 10.0 mi South 10.4 mph - N/A   Overcast
8:53 AM 64.9 °F 64.9 °F 100% 29.72 in 10.0 mi South 6.9 mph - N/A   Overcast
9:53 AM 64.9 °F 64.9 °F 100% 29.73 in 9.0 mi South 8.1 mph - 0.00 in   Overcast
10:53 AM 66.9 °F 66.0 °F 97% 29.73 in 10.0 mi SSW 6.9 mph - 0.00 in Rain Light Rain
11:40 AM 66.2 °F 66.2 °F 100% 29.73 in 10.0 mi SSW 6.9 mph - 0.00 in Rain Light Rain
11:53 AM 66.9 °F 66.0 °F 97% 29.72 in 10.0 mi SSW 3.5 mph - 0.00 in   Overcast
12:02 PM 66.2 °F 66.2 °F 100% 29.73 in 10.0 mi SSW 4.6 mph - 0.01 in   Overcast
12:46 PM 68.0 °F 66.2 °F 94% 29.72 in 9.0 mi SSE 4.6 mph - 0.02 in Rain Light Rain
12:53 PM 66.9 °F 66.9 °F 100% 29.72 in 10.0 mi Calm Calm - 0.02 in   Overcast
1:53 PM 68.0 °F 68.0 °F 100% 29.71 in 10.0 mi SE 3.5 mph - 0.00 in   Overcast
2:04 PM 68.0 °F 68.0 °F 100% 29.71 in 10.0 mi Calm Calm - N/A   Overcast
2:11 PM 69.8 °F 68.0 °F 94% 29.71 in 10.0 mi SSE 3.5 mph - N/A   Overcast
2:53 PM 69.1 °F 66.9 °F 93% 29.71 in 10.0 mi South 5.8 mph - N/A   Overcast
3:53 PM 70.0 °F 66.9 °F 90% 29.70 in 10.0 mi SSE 5.8 mph - N/A   Overcast
4:00 PM 69.8 °F 66.2 °F 88% 29.70 in 10.0 mi South 4.6 mph - N/A   Mostly Cloudy
4:11 PM 69.8 °F 66.2 °F 88% 29.70 in 10.0 mi SSE 3.5 mph - N/A   Mostly Cloudy
4:30 PM 69.8 °F 66.2 °F 88% 29.70 in 10.0 mi South 5.8 mph - N/A   Overcast
4:45 PM 66.2 °F 64.4 °F 94% 29.71 in 10.0 mi NNW 8.1 mph - 0.01 in   Overcast
4:53 PM 64.9 °F 63.0 °F 93% 29.72 in 10.0 mi NNW 8.1 mph - 0.01 in   Overcast
5:14 PM 62.6 °F 62.6 °F 100% 29.72 in 2.0 mi NW 4.6 mph - 0.07 in Rain Light Rain
5:18 PM 62.6 °F 62.6 °F 100% 29.72 in 4.0 mi North 3.5 mph - 0.07 in Rain Light Rain
5:29 PM 62.6 °F 62.6 °F 100% 29.73 in 2.5 mi Variable 3.5 mph - 0.09 in Rain Light Rain
5:39 PM 62.6 °F 62.6 °F 100% 29.73 in 2.0 mi Calm Calm - 0.11 in Rain Light Rain
5:53 PM 62.1 °F 62.1 °F 100% 29.74 in 1.8 mi North 4.6 mph - 0.18 in Rain Rain
6:08 PM 62.6 °F 62.6 °F 100% 29.74 in 2.0 mi NE 6.9 mph - 0.08 in Rain Rain
6:20 PM 60.8 °F 60.8 °F 100% 29.74 in 3.0 mi NNE 9.2 mph - 0.10 in Rain Light Rain
6:49 PM 60.8 °F 60.8 °F 100% 29.75 in 2.5 mi North 5.8 mph - 0.13 in Rain Light Rain
6:53 PM 60.1 °F 60.1 °F 100% 29.75 in 2.5 mi North 4.6 mph - 0.14 in Rain Light Rain
7:09 PM 59.0 °F 57.2 °F 94% 29.76 in 4.0 mi North 9.2 mph 16.1 mph 0.01 in Rain Light Rain
7:53 PM 57.0 °F 55.0 °F 93% 29.78 in 9.0 mi North 9.2 mph - 0.03 in   Overcast
8:53 PM 55.0 °F 53.1 °F 93% 29.79 in 10.0 mi Variable 4.6 mph - N/A   Overcast
9:53 PM 52.0 °F 52.0 °F 100% 29.81 in 5.0 mi NNW 8.1 mph - N/A   Overcast
10:13 PM 51.8 °F 51.8 °F 100% 29.81 in 5.0 mi Variable 5.8 mph - N/A   Overcast
10:25 PM 51.8 °F 51.8 °F 100% 29.81 in 4.0 mi NNW 8.1 mph - 0.01 in   Overcast
10:53 PM 51.1 °F 51.1 °F 100% 29.82 in 5.0 mi NW 5.8 mph - 0.01 in   Overcast
11:04 PM 51.8 °F 50.0 °F 94% 29.82 in 4.0 mi NNW 10.4 mph - N/A   Overcast
11:21 PM 50.0 °F 50.0 °F 100% 29.81 in 4.0 mi NNW 8.1 mph 17.3 mph N/A   Overcast
11:53 PM 50.0 °F 50.0 °F 100% 29.81 in 3.0 mi NW 6.9 mph - 0.01 in   Overcast